Location: Bismarck
(46.7731°N, 100.8200°W)
Time: 19:33:09
(UTC-05:00)

ISS - All Passes

Search period start: 20 October 2014 00:00
Search period end: 30 October 2014 00:00
Orbit: 413 x 416 km, 51.6° (Epoch: 20 October)

Date Brightness Start Highest point End Pass type
(mag) Time Alt. Az. Time Alt. Az. Time Alt. Az.
20 Oct - 15:24:39 10° SSW 15:27:29 26° SE 15:30:19 10° E daylight
20 Oct - 17:00:40 10° WSW 17:03:59 64° NNW 17:07:19 10° ENE daylight
20 Oct - 18:37:58 10° WNW 18:41:04 34° N 18:44:10 10° ENE daylight
20 Oct - 20:14:54 10° WNW 20:18:12 53° NNE 20:21:29 10° E visible
20 Oct - 21:51:44 10° WNW 21:54:50 35° SW 21:57:54 10° SSE visible
21 Oct - 14:36:29 10° S 14:38:39 16° SE 14:40:49 10° E daylight
21 Oct - 16:11:36 10° WSW 16:14:57 89° SSE 16:18:19 10° ENE daylight
21 Oct - 17:48:47 10° WNW 17:51:55 36° N 17:55:03 10° ENE daylight
21 Oct - 19:25:53 10° WNW 19:29:05 42° NNE 19:32:18 10° E visible
21 Oct - 21:02:36 10° WNW 21:05:54 56° SSW 21:09:10 10° SE visible
22 Oct - 15:22:39 10° SW 15:25:56 58° SSE 15:29:14 10° ENE daylight
22 Oct - 16:59:33 10° W 17:02:45 41° NNW 17:05:57 10° ENE daylight
22 Oct - 18:36:47 10° WNW 18:39:55 36° N 18:43:03 10° ENE daylight
22 Oct - 20:13:31 10° WNW 20:16:52 86° SSW 20:20:13 10° ESE visible
22 Oct - 21:51:05 10° W 21:53:09 16° SW 21:55:13 10° S visible
23 Oct - 14:33:50 10° SSW 14:36:55 36° SE 14:40:02 10° ENE daylight
23 Oct - 16:10:18 10° W 16:13:34 51° NNW 16:16:51 10° ENE daylight
23 Oct - 17:47:36 10° WNW 17:50:42 34° N 17:53:48 10° ENE daylight
23 Oct - 19:24:25 10° WNW 19:27:45 66° NNE 19:31:05 10° ESE visible
23 Oct - 21:01:27 10° W 21:04:14 25° SW 21:07:01 10° SSE visible
24 Oct - 13:45:15 10° SSW 13:47:56 23° SE 13:50:39 10° E daylight
24 Oct - 15:21:04 10° WSW 15:24:23 70° NNW 15:27:44 10° ENE daylight
24 Oct - 16:58:20 10° WNW 17:01:26 34° N 17:04:32 10° ENE daylight
24 Oct - 18:35:18 10° WNW 18:38:34 49° NNE 18:41:50 10° E daylight
24 Oct - 20:12:05 10° WNW 20:15:14 39° SW 20:18:22 10° SE visible
25 Oct - 12:57:05 10° S 12:58:59 15° SE 13:00:53 10° E daylight
25 Oct - 14:31:53 10° WSW 14:35:14 81° SSE 14:38:34 10° ENE daylight
25 Oct - 16:09:00 10° WNW 16:12:09 37° N 16:15:17 10° ENE daylight
25 Oct - 17:46:07 10° WNW 17:49:19 40° NNE 17:52:30 10° E daylight
25 Oct - 19:22:50 10° WNW 19:26:09 62° SSW 19:29:26 10° SE visible
25 Oct - 21:01:31 10° WSW 21:02:15 11° SW 21:03:00 10° SW visible
26 Oct - 13:42:49 10° SW 13:46:04 52° SSE 13:49:20 10° ENE daylight
26 Oct - 15:19:38 10° W 15:22:50 43° NNW 15:26:03 10° ENE daylight
26 Oct - 16:56:52 10° WNW 17:00:00 35° N 17:03:07 10° ENE daylight
26 Oct - 18:33:37 10° WNW 18:36:58 87° NNE 18:40:18 10° ESE daylight
26 Oct - 20:10:59 10° W 20:13:17 17° SW 20:15:34 10° S visible
27 Oct - 12:53:55 10° SSW 12:56:56 32° SE 12:59:58 10° ENE daylight
27 Oct - 14:30:14 10° W 14:33:31 55° NNW 14:36:49 10° ENE daylight
27 Oct - 16:07:32 10° WNW 16:10:38 34° N 16:13:43 10° ENE daylight
27 Oct - 17:44:23 10° WNW 17:47:42 61° NNE 17:51:00 10° ESE daylight
27 Oct - 19:21:19 10° W 19:24:13 27° SW 19:27:06 10° SSE visible
28 Oct - 12:05:17 10° S 12:07:49 21° SE 12:10:23 10° E daylight
28 Oct - 13:40:53 10° WSW 13:44:13 76° NNW 13:47:33 10° ENE daylight
28 Oct - 15:18:07 10° WNW 15:21:13 34° N 15:24:19 10° ENE daylight
28 Oct - 16:55:07 10° WNW 16:58:21 46° NNE 17:01:36 10° E daylight
28 Oct - 18:31:52 10° WNW 18:35:03 44° SW 18:38:14 10° SE daylight
29 Oct - 11:17:12 10° SSE 11:18:44 13° SE 11:20:17 10° ESE daylight
29 Oct - 12:51:36 10° SW 12:54:55 73° SSE 12:58:15 10° ENE daylight
29 Oct - 14:28:38 10° W 14:31:47 38° N 14:34:57 10° ENE daylight
29 Oct - 16:05:47 10° WNW 16:08:57 38° N 16:12:06 10° E daylight
29 Oct - 17:42:29 10° WNW 17:45:48 70° SSW 17:49:07 10° SE daylight
29 Oct - 19:20:35 10° WSW 19:21:58 12° SW 19:23:21 10° SSW visible
